Content
SEND FEEDBACK

United States of America Flag

MALDEN, MISSOURI


Home > North America > United States > Missouri
Elevation: 295 feet     Latitude: 36 36N     Longitude: 089 59W

WEATHER
 
SELECT A DAY
Number of Records: 217,564;   Date Range: 1/1/95 - 5/23/15
 
SHARE

PRINT THIS DATA

[ ← Previous Day ]
WEATHER ALMANAC - JUNE 16, 2014
[ Next Day → ]
[ °C ]   °F
Weather ElementAverageHighLow
Temperature81 °F90 °F (3:53 pm)68 °F (5:53 am)
Dewpoint67.5 °F70 °F (9:53 am)64 °F (5:53 am)
Humidity65.2 %87 % (2:53 am)48 % (2:53 pm)
Barometer30.03 in30.09 in (7:53 am)29.97 in (8:53 pm)
Wind Speed7.6 mph15 mph (4:53 pm)
Wind Gust21.9 mph (3:53 pm)
Weather ElementAverage
Visibility9 mi
Wind DirectionSSE (144.8 °)

Weather ElementTotal
Precipitation---
Cooling Degree Days14 (Base 65)
Growing Degree Days29 (Base 50)
Averaged from 23 records on June 16, 2014
WEATHER CONDITIONS BREAKOUT
WIND DIRECTION BREAKOUT
WEATHER BY HOUR - JUNE 16, 2014
[ °C ]   °F
Local TimeTemperatureDewpointHumidityBarometerVisibilityWind DirectionWind SpeedGust SpeedPrecipitationEventsConditions
1:53 AM71.1 °F66.0 °F84 %30.04 in9.0 miCalmClear
2:53 AM70.0 °F66.0 °F87 %30.04 in9.0 miCalmClear
3:53 AM69.1 °F64.9 °F87 %30.04 in9.0 miCalm0.00 inClear
4:53 AM69.1 °F64.9 °F87 %30.05 in4.0 miCalmClear
5:53 AM68.0 °F64.0 °F87 %30.06 in3.0 miCalmClear
6:53 AM71.1 °F66.9 °F87 %30.08 in4.0 miCalm0.00 inClear
7:53 AM77.0 °F68.0 °F74 %30.09 in10.0 miSSW (200°)5.8 mphClear
8:53 AM80.1 °F69.1 °F69 %30.09 in10.0 miSSW (200°)9.2 mphClear
9:53 AM84.0 °F70.0 °F63 %30.07 in10.0 miSSW (200°)9.2 mphClear
10:53 AM86.0 °F69.1 °F57 %30.08 in10.0 miSSW (210°)9.2 mphClear
11:53 AM87.1 °F69.1 °F55 %30.07 in10.0 miSSW (210°)12.7 mphScattered Clouds
12:53 PM88.0 °F70.0 °F55 %30.05 in10.0 miSW (220°)13.8 mphClear
1:53 PM89.1 °F69.1 °F52 %30.04 in10.0 miSouth (190°)11.5 mphMostly Cloudy
2:53 PM89.1 °F66.9 °F48 %30.02 in10.0 miSouth (190°)13.8 mphScattered Clouds
3:53 PM90.0 °F68.0 °F48 %30.01 in10.0 miSSW (200°)12.7 mph21.9 mphScattered Clouds
4:53 PM90.0 °F68.0 °F48 %30.00 in10.0 miSSW (210°)15.0 mphPartly Cloudy
5:53 PM87.1 °F66.9 °F51 %29.99 in10.0 miSouth (190°)9.2 mph18.4 mphPartly Cloudy
6:53 PM88.0 °F68.0 °F51 %29.99 in10.0 miSSW (210°)11.5 mphClear
7:53 PM84.9 °F68.0 °F57 %29.98 in10.0 miSouth (190°)8.1 mphClear
8:53 PM82.9 °F68.0 °F60 %29.97 in10.0 miSouth (180°)9.2 mphClear
9:53 PM82.0 °F66.9 °F60 %29.98 in10.0 miSouth (180°)8.1 mphClear
10:53 PM80.1 °F68.0 °F67 %29.99 in10.0 miSouth (170°)9.2 mphClear
11:53 PM79.0 °F66.9 °F66 %29.99 in10.0 miSouth (180°)6.9 mphClear
Hourly data recorded from KPOF, located miles away from Malden, Missouri







STORIES FROM OUR PARTNERS